Home > Time Zones > World Clock > Weather > Iran > Kerman > Past weeks

Flag for Iran Weather past 2 weeks in Kerman, Iran

Now
81 °F

Sunny.


Feels Like: 78 °F
Forecast: 58 / 87 °F
Wind: 9 mph from North

Location: Kerman Airport

Current Time: Jul 30, 2015 at 9:25:28 PM

Latest Report: Jul 30, 2015 at 8:30 PM


Visibility: 10 mi

Pressure: 29.98 "Hg (24.53 "Hg at 1762m altitude)

Humidity: 7%

Dew point: 12 °F

Location of KermanLocation

Historic Weather in Kerman — Graph

°F

Kerman temperature yesterday

Maximum temperature yesterday: 91 °F (at 2:30 PM)
Minimum temperature yesterday: 63 °F (at 6:30 AM)
Average temperature yesterday: 82 °F

Past Weeks' High & Low Weather Summary

 TemperatureHumidityPressure
High97 °F (Jul 19, 2:30 PM)83% (Jul 23, 4:30 AM)30.12 "Hg (Jul 23, 4:30 AM)
Low59 °F (Jul 27, 5:30 AM)4% (Jul 30, 5:30 PM)29.74 "Hg (Jul 17, 8:30 PM)
Average81 °F21%29.97 "Hg
* Reported Jul 15 7:30 PM — Jul 30 7:30 PM, Kerman, Weather by CustomWeather, © 2015

Note: Actual official high and low records may vary slightly from our data, if they occured in-between our weather recording intervals... More about our weather records

Advertising

Kerman weather history for previous 24 hours

 ConditionsComfort  
Time TempWeatherWind HumidityBarometerVisibility
7:30 PM
Thu, Jul 30
84 °FSunny.12 mph6%29.98 "Hg10 mi
6:30 PM86 °FPassing clouds.21 mph5%29.95 "HgN/A
5:30 PM90 °FPassing clouds.18 mph4%29.95 "HgN/A
4:30 PM90 °FPassing clouds.18 mph5%29.95 "HgN/A
3:30 PM90 °FPassing clouds.21 mph5%29.95 "HgN/A
2:30 PM90 °FPassing clouds.18 mph5%29.95 "HgN/A
1:30 PM90 °FPassing clouds.14 mph6%29.98 "HgN/A
12:30 PM88 °FSunny.12 mph9%30.01 "Hg10 mi
11:30 AM86 °FSunny.12 mph10%30.01 "Hg10 mi
10:30 AM84 °FSunny.12 mph10%30.04 "Hg10 mi
9:30 AM81 °FSunny.7 mph14%30.04 "Hg10 mi
9:00 AM82 °FSunny.5 mph12%30.04 "Hg10 mi
8:30 AM81 °FSunny.7 mph13%30.04 "Hg10 mi
7:30 AM72 °FSunny.No wind19%30.04 "Hg10 mi
6:30 AM66 °FClear.5 mph22%30.01 "Hg10 mi
5:30 AM68 °FClear.7 mph20%30.01 "Hg10 mi
4:30 AM68 °FClear.7 mph20%29.98 "Hg10 mi
3:30 AM72 °FClear.12 mph17%29.98 "Hg10 mi
2:30 AM73 °FClear.9 mph16%29.98 "Hg10 mi
1:30 AM73 °FClear.12 mph15%30.01 "Hg10 mi
12:30 AM73 °FClear.7 mph14%30.01 "Hg10 mi
11:30 PM
Wed, Jul 29
73 °FPassing clouds.7 mph13%30.01 "HgN/A
10:30 PM77 °FPassing clouds.5 mph12%30.01 "HgN/A
9:30 PM81 °FPassing clouds.9 mph10%29.98 "HgN/A
Weather by CustomWeather, © 2015

See weather overviewHow to use our weather pages